Home   Weather   Zürich   Past weeks

Flag for Switzerland Past Weather in Zürich, Zurich, Switzerland — Yesterday and Last 2 Weeks

Now
78 °F

Warm.


Feels Like: 80 °F
Forecast: 59 / 84 °F
Wind: 6 mph from Northeast

Location: Zuerich-Fluntern

Current Time: Jul 21, 2017 at 6:56:08 pm

Latest Report: Jul 21, 2017 at 5:00 pm


Visibility: N/A

Pressure: 29.77 "Hg

Humidity: 58%

Dew Point: 63 °F

Location of ZürichLocation

Past Weather in Zürich — Graph

°F

Zürich Temperature Yesterday

Maximum temperature yesterday: 74 °F (at 5:00 pm)
Minimum temperature yesterday: 60 °F (at 12:00 pm)
Average temperature yesterday: 68 °F

High & Low Weather Summary for the Past Weeks

 TemperatureHumidityPressure
High90 °F (Jul 8, 3:00 pm)97% (Jul 10, 8:00 am)30.29 "Hg (Jul 10, 8:00 am)
Low53 °F (Jul 16, 4:00 am)23% (Jul 6, 5:00 pm)29.77 "Hg (Jul 21, 5:00 pm)
Average69 °F68%30.02 "Hg
* Reported Jul 6 5:00 pm — Jul 21 5:00 pm, Zürich. Weather by CustomWeather, © 2017

Note: Actual official high and low records may vary slightly from our data, if they occured in-between our weather recording intervals... More about our weather records

Advertising

Zürich Weather History for the Previous 24 Hours

Scroll right to see more
 ConditionsComfort  
Time TempWeatherWind HumidityBarometerVisibility
5:00 pm
Fri, Jul 21
78 °FWarm.6 mph58%29.77 "HgN/A
4:00 pm80 °FWarm.5 mph53%29.78 "HgN/A
3:00 pm78 °FWarm.5 mph55%29.82 "HgN/A
2:00 pm77 °FPartly sunny.6 mph56%29.83 "HgN/A
1:00 pm75 °FMild.5 mph61%29.86 "HgN/A
12:00 pm74 °FMild.6 mph68%29.88 "HgN/A
11:00 am70 °FMild.6 mph76%29.90 "HgN/A
10:00 am68 °FMild.6 mph82%29.92 "HgN/A
9:00 am65 °FMild.5 mph89%29.94 "HgN/A
8:00 am63 °FPartly sunny.3 mph93%29.95 "HgN/A
7:00 am62 °FCool.5 mph94%29.95 "HgN/A
6:00 am61 °FCool.1 mph94%29.96 "HgN/A
5:00 am61 °FCool.1 mph94%29.96 "HgN/A
4:00 am63 °FMild.2 mph94%29.96 "HgN/A
3:00 am63 °FMild.5 mph93%29.98 "HgN/A
2:00 am63 °FMild.2 mph93%29.98 "HgN/A
1:00 am64 °FMild.3 mph89%29.98 "HgN/A
12:00 am64 °FMild.3 mph90%29.98 "HgN/A
11:00 pm
Thu, Jul 20
64 °FMild.3 mph93%29.97 "HgN/A
10:00 pm65 °FMild.7 mph92%29.97 "HgN/A
9:00 pm71 °FMild.2 mph71%29.91 "HgN/A
8:00 pm72 °FPassing clouds.3 mph62%29.90 "HgN/A
7:00 pm74 °FMild.2 mph59%29.89 "HgN/A
6:00 pm74 °FMild.3 mph59%29.90 "HgN/A
Weather by CustomWeather, © 2017

See weather overviewHow to use our weather pages